Time,TemperatureF,DewpointF,PressureIn,WindDirection,WindDirectionDegrees,WindSpeedMPH,WindSpeedGustMPH,Humidity,HourlyPrecipIn,Conditions,Clouds,dailyrainin,SoftwareType,DateUTC
2013-01-13 00:59:00,55.0,54.4,29.99,North,3,0.0,0.0,98,0.00,OVC,,0.00,WeatherDisplay:10.37,2013-01-13 05:59:00,
2013-01-13 01:59:00,56.9,56.3,29.99,North,1,0.0,0.0,98,0.00,OVC,,0.00,WeatherDisplay:10.37,2013-01-13 06:59:00,
2013-01-13 02:59:00,59.6,59.1,29.99,North,3,0.0,0.0,98,0.00,OVC,,0.00,WeatherDisplay:10.37,2013-01-13 07:59:00,
2013-01-13 03:59:00,61.0,60.4,29.98,North,1,0.0,0.0,98,0.00,OVC,,0.00,WeatherDisplay:10.37,2013-01-13 08:59:00,
2013-01-13 04:59:00,62.6,62.0,29.96,North,3,0.0,0.0,98,0.00,OVC,,0.00,WeatherDisplay:10.37,2013-01-13 09:59:00,
2013-01-13 05:59:00,63.0,62.4,29.98,North,3,0.0,0.0,98,0.00,OVC,,0.00,WeatherDisplay:10.37,2013-01-13 10:59:00,
2013-01-13 06:59:00,62.7,62.1,30.00,North,3,0.0,0.0,98,0.00,OVC,,0.00,WeatherDisplay:10.37,2013-01-13 11:59:00,
2013-01-13 07:59:00,61.8,61.2,30.02,North,3,0.0,0.0,98,0.00,OVC,,0.00,WeatherDisplay:10.37,2013-01-13 12:59:00,
2013-01-13 08:59:00,61.0,60.4,30.03,North,3,0.0,0.0,98,0.00,OVC,,0.00,WeatherDisplay:10.37,2013-01-13 13:59:00,
2013-01-13 09:59:00,60.3,59.7,30.02,North,1,0.0,0.0,98,0.00,OVC,,0.00,WeatherDisplay:10.37,2013-01-13 14:59:00,
2013-01-13 10:59:00,60.6,60.0,30.01,North,2,0.0,0.0,98,0.00,OVC,,0.00,WeatherDisplay:10.37,2013-01-13 15:59:00,
2013-01-13 11:59:00,61.0,60.4,30.00,North,3,0.0,0.0,98,0.00,OVC,,0.00,WeatherDisplay:10.37,2013-01-13 16:59:00,
2013-01-13 12:59:00,61.4,60.8,29.97,North,3,0.0,0.0,98,0.00,OVC,,0.00,WeatherDisplay:10.37,2013-01-13 17:59:00,
2013-01-13 13:59:00,63.0,62.4,29.95,North,3,0.0,0.0,98,0.00,OVC,,0.00,WeatherDisplay:10.37,2013-01-13 18:59:00,
2013-01-13 14:59:00,64.9,64.4,29.96,North,3,0.0,0.0,98,0.00,OVC,,0.00,WeatherDisplay:10.37,2013-01-13 19:59:00,
2013-01-13 15:59:00,65.2,64.6,29.96,North,3,0.0,0.0,98,0.00,-DZ,,0.00,WeatherDisplay:10.37,2013-01-13 20:59:00,
2013-01-13 16:59:00,65.8,65.2,29.96,North,3,0.0,0.0,98,0.00,OVC,,0.00,WeatherDisplay:10.37,2013-01-13 21:59:00,
2013-01-13 17:59:00,64.7,57.7,29.92,NNW,346,0.0,10.0,78,0.00,OVC,,0.00,WeatherDisplay:10.37,2013-01-13 22:59:00,
2013-01-13 18:59:00,64.1,57.8,29.93,NW,316,1.0,6.0,80,0.00,OVC,,0.00,WeatherDisplay:10.37,2013-01-13 23:59:00,
2013-01-13 19:59:00,65.7,58.2,29.92,South,178,2.0,12.0,77,0.00,OVC,,0.00,WeatherDisplay:10.37,2013-01-14 00:59:00,
2013-01-13 20:59:00,66.3,59.2,29.92,SW,220,1.0,12.0,78,0.00,OVC,,0.00,WeatherDisplay:10.37,2013-01-14 01:59:00,
2013-01-13 21:59:00,63.9,60.6,29.91,South,190,0.0,10.0,89,0.12,RA,,0.12,WeatherDisplay:10.37,2013-01-14 02:59:00,
2013-01-13 22:59:00,61.6,60.1,29.97,SSE,158,1.0,14.0,95,0.36,RA,,0.48,WeatherDisplay:10.37,2013-01-14 03:59:00,
2013-01-13 23:59:00,60.5,59.4,29.97,SSE,163,1.0,9.0,96,0.47,RA,,0.00,WeatherDisplay:10.37,2013-01-14 04:59:00,